TimeCDT,TemperatureF,Dew PointF,Humidity,Sea Level PressureIn,VisibilityMPH,Wind Direction,Wind SpeedMPH,Gust SpeedMPH,PrecipitationIn,Events,Conditions,WindDirDegrees,DateUTC
12:15 AM,69.8,62.6,78,30.11,10.0,Calm,Calm,-,N/A,,Overcast,0,2013-07-31 05:15:00
12:35 AM,69.8,62.6,78,30.10,10.0,Calm,Calm,-,N/A,,Overcast,0,2013-07-31 05:35:00
12:55 AM,69.8,62.6,78,30.11,10.0,Calm,Calm,-,N/A,,Overcast,0,2013-07-31 05:55:00
1:15 AM,69.8,62.6,78,30.11,10.0,Calm,Calm,-,N/A,,Overcast,0,2013-07-31 06:15:00
1:55 AM,68.0,62.6,83,30.10,7.0,Calm,Calm,-,N/A,,Overcast,0,2013-07-31 06:55:00
2:15 AM,66.2,60.8,83,30.10,5.0,Calm,Calm,-,N/A,,Haze,0,2013-07-31 07:15:00
2:35 AM,64.4,60.8,88,30.10,2.0,Calm,Calm,-,N/A,,Haze,0,2013-07-31 07:35:00
2:55 AM,64.4,60.8,88,30.10,5.0,Calm,Calm,-,N/A,,Scattered Clouds,0,2013-07-31 07:55:00
3:15 AM,64.4,60.8,88,30.11,2.5,Calm,Calm,-,N/A,,Scattered Clouds,0,2013-07-31 08:15:00
3:35 AM,62.6,60.8,94,30.11,3.0,Calm,Calm,-,N/A,,Scattered Clouds,0,2013-07-31 08:35:00
3:55 AM,62.6,59.0,88,30.12,4.0,Calm,Calm,-,N/A,,Scattered Clouds,0,2013-07-31 08:55:00
4:15 AM,62.6,57.2,82,30.10,0.5,Calm,Calm,-,N/A,Fog,Fog,0,2013-07-31 09:15:00
4:35 AM,60.8,57.2,88,30.10,0.2,Calm,Calm,-,N/A,Fog,Fog,0,2013-07-31 09:35:00
4:55 AM,60.8,57.2,88,30.11,0.5,Calm,Calm,-,N/A,Fog,Fog,0,2013-07-31 09:55:00
5:15 AM,62.6,57.2,82,30.12,0.2,Calm,Calm,-,N/A,Fog,Fog,0,2013-07-31 10:15:00
5:35 AM,60.8,55.4,82,30.13,2.0,Calm,Calm,-,N/A,,Overcast,0,2013-07-31 10:35:00
5:55 AM,60.8,57.2,88,30.13,0.2,Calm,Calm,-,N/A,Fog,Fog,0,2013-07-31 10:55:00
6:15 AM,60.8,57.2,88,30.12,0.5,Calm,Calm,-,N/A,Fog,Fog,0,2013-07-31 11:15:00
6:35 AM,62.6,57.2,82,30.11,0.2,Calm,Calm,-,N/A,Fog,Fog,0,2013-07-31 11:35:00
6:55 AM,62.6,59.0,88,30.12,0.2,Calm,Calm,-,N/A,Fog,Fog,0,2013-07-31 11:55:00
7:15 AM,62.6,60.8,94,30.14,0.2,Calm,Calm,-,N/A,Fog,Fog,0,2013-07-31 12:15:00
7:35 AM,62.6,60.8,94,30.15,0.2,North,3.5,-,N/A,Fog,Fog,350,2013-07-31 12:35:00
7:55 AM,62.6,60.8,94,30.16,0.2,Calm,Calm,-,N/A,Fog,Fog,0,2013-07-31 12:55:00
8:15 AM,64.4,60.8,88,30.15,0.2,Calm,Calm,-,N/A,Fog,Fog,0,2013-07-31 13:15:00
8:35 AM,64.4,60.8,88,30.16,0.2,Calm,Calm,-,N/A,Fog,Fog,0,2013-07-31 13:35:00
8:55 AM,64.4,62.6,94,30.16,0.8,Calm,Calm,-,N/A,,Overcast,0,2013-07-31 13:55:00
9:15 AM,66.2,62.6,88,30.16,3.0,Calm,Calm,-,N/A,,Overcast,0,2013-07-31 14:15:00
9:35 AM,68.0,64.4,88,30.17,7.0,Calm,Calm,-,N/A,,Overcast,0,2013-07-31 14:35:00
9:55 AM,69.8,64.4,83,30.16,7.0,Calm,Calm,-,N/A,,Scattered Clouds,0,2013-07-31 14:55:00
10:15 AM,69.8,64.4,83,30.16,10.0,North,3.5,-,N/A,,Clear,10,2013-07-31 15:15:00
10:35 AM,73.4,64.4,73,30.15,10.0,Calm,Calm,-,N/A,,Clear,0,2013-07-31 15:35:00
10:55 AM,75.2,64.4,69,30.16,10.0,ENE,4.6,-,N/A,,Scattered Clouds,70,2013-07-31 15:55:00
11:15 AM,75.2,64.4,69,30.15,10.0,Calm,Calm,-,N/A,,Mostly Cloudy,0,2013-07-31 16:15:00
11:35 AM,75.2,64.4,69,30.15,10.0,Calm,Calm,-,N/A,,Scattered Clouds,0,2013-07-31 16:35:00
11:55 AM,75.2,64.4,69,30.14,10.0,Calm,Calm,-,N/A,,Scattered Clouds,0,2013-07-31 16:55:00
12:15 PM,77.0,64.4,65,30.14,10.0,Calm,Calm,-,N/A,,Scattered Clouds,0,2013-07-31 17:15:00
12:35 PM,77.0,64.4,65,30.14,10.0,Calm,Calm,-,N/A,,Scattered Clouds,0,2013-07-31 17:35:00
12:55 PM,78.8,64.4,61,30.14,10.0,Calm,Calm,-,N/A,,Scattered Clouds,0,2013-07-31 17:55:00
1:15 PM,78.8,64.4,61,30.14,10.0,NNE,3.5,-,N/A,,Scattered Clouds,30,2013-07-31 18:15:00
1:35 PM,80.6,64.4,58,30.14,10.0,Calm,Calm,-,N/A,,Scattered Clouds,0,2013-07-31 18:35:00
1:55 PM,80.6,64.4,58,30.13,10.0,SW,3.5,-,N/A,,Scattered Clouds,230,2013-07-31 18:55:00
2:15 PM,80.6,62.6,54,30.12,10.0,Calm,Calm,-,N/A,,Scattered Clouds,0,2013-07-31 19:15:00
2:35 PM,82.4,64.4,54,30.12,10.0,West,3.5,-,N/A,,Scattered Clouds,280,2013-07-31 19:35:00
2:55 PM,82.4,64.4,54,30.12,10.0,Calm,Calm,-,N/A,,Mostly Cloudy,0,2013-07-31 19:55:00
3:15 PM,82.4,64.4,54,30.12,10.0,Calm,Calm,-,N/A,,Scattered Clouds,0,2013-07-31 20:15:00
3:35 PM,82.4,64.4,54,30.11,10.0,Calm,Calm,-,N/A,,Scattered Clouds,0,2013-07-31 20:35:00
3:55 PM,82.4,64.4,54,30.11,10.0,Calm,Calm,-,N/A,,Scattered Clouds,0,2013-07-31 20:55:00
4:15 PM,82.4,62.6,51,30.10,10.0,Calm,Calm,-,N/A,,Scattered Clouds,0,2013-07-31 21:15:00
4:35 PM,82.4,64.4,54,30.10,10.0,Calm,Calm,-,N/A,,Scattered Clouds,0,2013-07-31 21:35:00
4:55 PM,82.4,64.4,54,30.09,10.0,NW,4.6,-,N/A,,Scattered Clouds,320,2013-07-31 21:55:00
5:15 PM,80.6,64.4,58,30.08,10.0,Calm,Calm,-,N/A,,Clear,0,2013-07-31 22:15:00
5:35 PM,82.4,62.6,51,30.08,10.0,Calm,Calm,-,N/A,,Scattered Clouds,0,2013-07-31 22:35:00
5:55 PM,82.4,64.4,54,30.07,10.0,West,3.5,-,N/A,,Scattered Clouds,270,2013-07-31 22:55:00
6:15 PM,82.4,62.6,51,30.07,10.0,WNW,3.5,-,N/A,,Scattered Clouds,300,2013-07-31 23:15:00
6:35 PM,82.4,64.4,54,30.07,10.0,Calm,Calm,-,N/A,,Clear,0,2013-07-31 23:35:00
6:55 PM,82.4,64.4,54,30.07,10.0,Calm,Calm,-,N/A,,Clear,0,2013-07-31 23:55:00
7:15 PM,80.6,66.2,61,30.07,10.0,Calm,Calm,-,N/A,,Clear,0,2013-08-01 00:15:00
7:35 PM,80.6,66.2,61,30.07,10.0,Calm,Calm,-,N/A,,Clear,0,2013-08-01 00:35:00
7:55 PM,78.8,66.2,65,30.07,10.0,Calm,Calm,-,N/A,,Clear,0,2013-08-01 00:55:00
8:15 PM,75.2,66.2,73,30.08,10.0,SW,3.5,-,N/A,,Clear,220,2013-08-01 01:15:00
8:35 PM,73.4,66.2,78,30.08,10.0,SW,3.5,-,N/A,,Clear,230,2013-08-01 01:35:00
8:55 PM,71.6,64.4,78,30.08,10.0,Calm,Calm,-,N/A,,Clear,0,2013-08-01 01:55:00
9:15 PM,71.6,64.4,78,30.08,10.0,Calm,Calm,-,N/A,,Scattered Clouds,0,2013-08-01 02:15:00
9:35 PM,69.8,62.6,78,30.09,10.0,Calm,Calm,-,N/A,,Scattered Clouds,0,2013-08-01 02:35:00
9:55 PM,69.8,62.6,78,30.09,10.0,Calm,Calm,-,N/A,,Scattered Clouds,0,2013-08-01 02:55:00
10:15 PM,68.0,62.6,83,30.10,10.0,SSW,3.5,-,N/A,,Scattered Clouds,200,2013-08-01 03:15:00
10:35 PM,66.2,62.6,88,30.10,10.0,Calm,Calm,-,N/A,,Scattered Clouds,0,2013-08-01 03:35:00
10:55 PM,64.4,60.8,88,30.10,10.0,Calm,Calm,-,N/A,,Clear,0,2013-08-01 03:55:00
11:15 PM,66.2,60.8,83,30.11,10.0,Calm,Calm,-,N/A,,Clear,0,2013-08-01 04:15:00
11:35 PM,66.2,60.8,83,30.11,10.0,Calm,Calm,-,N/A,,Scattered Clouds,0,2013-08-01 04:35:00
11:55 PM,64.4,60.8,88,30.11,10.0,Calm,Calm,-,N/A,,Scattered Clouds,0,2013-08-01 04:55:00